Dewpoint
57 57 56 56 56 55 54 51 49 46 46 48 48 47 46 46 48 47 44 43 42 42 42 42 43 44 44 44 44 42 40 39 38 38 38 36 36 36
56 56 55 55 54 54 53 52 51 49 48 50 48 49 47 46 46 46 45 45 42 41 40 40 39 40 40 40 40 41 41 41 41 40 40 39 36 34
54 54 54 54 55 55 55 54 53 52 49 50 50 50 48 47 47 46 46 43 41 40 38 36 36 37 38 39 39 40 40 41 42 42 41 39 38 35
53 54 54 54 55 55 55 54 53 52 50 48 49 49 50 50 50 46 44 40 39 38 36 37 37 37 38 38 39 39 39 40 41 41 40 39 38 37
54 54 54 54 54 54 54 52 52 51 50 48 47 49 49 45 45 42 43 40 38 39 39 38 38 38 37 37 36 36 36 36 36 36 37 37 37 37
55 54 54 55 55 54 53 51 51 49 48 47 46 44 39 38 39 38 38 40 40 43 42 39 37 34 34 34 33 34 34 34 34 35 35 35 36 37
55 51 40 38 37 38 43 47 48 47 46 44 40 36 36 35 36 37 36 36 38 39 38 38 37 36 34 32 31 31 31 31 31 32 33 35 37 37
42 37 35 35 34 33 33 32 32 36 37 37 34 34 33 33 33 33 32 31 31 37 35 34 35 32 32 31 29 28 28 31 33 33 34 34 33 34
34 33 32 33 33 32 30 30 30 31 31 32 31 30 31 31 32 31 31 31 31 33 32 30 33 32 32 26 26 27 28 28 29 31 32 31 32 33
30 30 30 31 31 30 29 29 29 30 31 31 31 31 32 32 32 32 31 31 32 32 33 28 31 30 27 26 27 27 28 30 30 31 31 31 32 32
29 29 28 28 28 30 29 29 29 29 30 30 30 30 30 30 30 30 28 28 27 29 32 30 30 30 29 29 29 29 27 29 30 30 31 31 31 32
26 26 27 26 26 27 28 29 28 29 28 28 29 29 28 29 27 26 26 24 24 23 27 27 28 29 27 29 29 28 28 29 30 29 30 29 30 30
26 25 25 25 25 26 27 24 24 24 26 25 25 25 26 27 28 27 28 26 22 21 22 25 22 21 22 23 22 23 23 25 26 26 28 29 31 31
26 24 23 24 25 25 25 24 23 24 24 22 21 22 23 22 24 19 20 21 21 22 22 23 20 19 19 19 18 17 18 20 22 23 25 26 30 31
23 23 21 22 22 25 23 21 22 21 19 16 17 19 17 17 16 16 15 15 15 16 16 16 20 19 19 18 17 17 18 19 20 21 23 25 27 31
23 22 22 20 23 23 20 22 24 20 16 19 17 13 13 13 12 13 13 11 13 13 10 13 16 18 19 18 17 17 16 15 17 19 21 22 26 28
19 16 15 14 13 11 12 13 13 14 14 11 9 9 9 8 8 10 10 8 9 9 9 7 7 9 10 9 11 11 11 13 15 16 17 17 20 30
13 11 12 12 10 7 6 6 6 5 6 4 7 7 7 7 7 7 7 10 9 10 9 7 8 9 9 7 7 10 13 14 18 18 18 19 20 26
8 8 8 7 6 3 2 3 3 4 4 5 5 5 6 5 8 6 6 8 6 4 5 5 5 5 7 8 7 8 13 12 12 14 17 18 22 25
3 4 5 4 3 2 2 3 4 5 6 4 4 6 6 6 5 5 5 6 5 3 2 2 5 6 10 7 6 7 5 9 13 15 17 19 22 31
2 2 3 3 3 3 5 5 5 5 4 5 4 5 5 4 4 3 3 4 5 4 4 3 3 5 6 9 9 8 10 8 11 16 20 20 18 26
4 3 3 3 4 3 4 4 3 2 2 2 2 3 5 4 3 4 5 5 4 4 4 4 3 5 7 7 7 7 8 11 12 14 16 19 18 24
4 4 3 3 3 2 1 2 2 2 1 1 2 2 3 3 3 4 5 5 4 5 4 6 5 3 4 5 7 8 9 10 15 16 19 28 28 25
Wind_Speed
18 19 19 17 17 18 19 20 21 24 29 22 19 20 23 18 17 20 26 28 35 33 32 30 29 28 28 26 25 23 23 23 24 24 24 25 26 27
19 20 21 19 19 18 20 21 22 27 36 21 20 21 18 20 25 27 28 33 34 36 34 32 30 28 26 24 22 22 21 21 22 23 25 28 29 30
22 23 24 23 22 20 17 20 26 26 33 29 22 16 19 21 24 27 29 29 26 35 34 32 30 28 26 24 23 22 20 19 21 22 25 28 29 30
25 25 26 21 16 17 22 25 24 24 25 34 24 20 23 24 26 24 23 24 25 26 31 28 25 23 22 21 19 19 19 19 19 21 23 24 27 29
24 24 23 19 24 25 23 22 20 22 23 25 27 16 18 8 15 6 11 12 3 5 7 9 8 8 10 12 14 17 18 20 21 22 23 22 24 26
19 22 28 25 19 16 18 21 20 21 19 19 20 12 5 1 2 3 4 1 5 5 3 7 8 8 9 13 17 18 21 24 22 22 23 24 24 24
18 5 17 19 20 18 10 12 12 14 15 15 10 5 5 4 8 4 5 1 3 7 8 10 9 11 11 17 23 26 31 27 25 24 23 21 21 22
10 14 15 18 20 24 24 27 25 7 4 4 3 3 3 3 1 2 3 4 5 5 7 8 8 10 13 17 19 21 15 18 19 20 18 17 18 19
16 15 15 15 14 13 16 18 21 22 20 10 8 8 6 6 3 3 2 2 2 2 5 12 10 17 16 21 23 22 22 23 22 20 19 20 20 21
18 16 14 15 15 11 11 12 13 13 13 10 9 6 5 3 2 2 4 7 9 11 10 16 13 19 18 18 20 21 24 24 23 23 22 21 21 21
17 15 14 14 17 15 11 10 8 7 7 7 7 6 6 6 7 8 8 10 13 11 7 14 15 18 19 20 18 22 23 24 24 24 22 21 21 22
12 13 18 15 15 15 10 10 10 8 9 9 6 4 3 5 3 4 8 12 13 11 4 8 8 8 8 12 19 17 14 20 22 22 23 24 22 16
11 11 12 14 14 13 13 12 11 12 10 11 11 10 9 8 7 7 8 9 10 13 15 12 9 14 12 12 17 18 15 13 16 16 23 25 23 19
13 12 12 13 12 11 10 9 10 10 10 11 13 12 11 11 10 12 14 13 12 16 17 15 13 17 18 19 22 17 17 17 16 17 16 17 21 23
10 7 10 11 13 7 6 7 9 11 13 14 14 12 13 14 14 15 15 16 17 17 17 19 17 17 17 19 20 20 19 18 16 18 16 16 18 13
8 10 10 9 5 7 10 12 12 13 13 14 14 15 16 17 18 17 18 18 18 18 20 19 18 17 17 18 18 21 19 20 17 17 17 18 16 17
8 11 13 13 13 14 13 14 15 16 16 16 18 18 18 19 19 17 18 20 20 20 20 18 19 19 18 20 19 19 21 20 19 20 20 21 18 17
10 11 12 14 14 15 15 16 16 17 17 19 18 18 18 19 19 19 19 19 19 19 20 20 19 19 19 20 22 21 21 22 19 22 21 21 21 13
12 12 13 13 13 14 15 15 16 16 16 16 17 17 17 18 18 19 18 18 19 19 18 19 19 19 21 21 18 22 17 21 21 20 16 16 19 24
13 13 13 13 13 13 14 14 15 15 15 16 16 16 17 17 18 19 19 18 19 20 20 19 18 18 19 21 25 23 25 22 19 19 18 17 16 13
12 12 11 12 12 13 13 13 14 14 15 15 16 16 16 17 18 17 18 19 19 19 20 20 19 23 20 20 21 20 16 22 23 20 18 17 18 8
11 11 11 11 12 12 13 13 14 15 15 15 15 16 16 16 17 18 17 18 19 19 19 19 20 19 19 20 22 24 20 18 21 24 24 24 19 2
10 11 11 11 12 12 13 14 14 15 14 15 15 16 15 16 17 17 18 18 19 19 20 20 19 19 20 21 22 21 24 23 17 19 19 8 17 14
Wind_Direction
240 241 242 242 244 237 232 229 239 262 261 253 244 224 223 226 233 240 242 232 224 222 222 221 220 221 222 223 225 227 234 242 250 255 256 256 259 263
241 244 246 244 247 247 234 234 239 248 266 255 232 227 210 218 222 220 230 232 222 217 216 214 216 217 220 220 223 228 231 238 248 254 257 258 259 263
241 244 246 248 245 242 234 232 244 244 252 263 247 229 226 221 229 220 226 232 227 211 211 213 217 218 221 224 228 234 239 246 250 254 256 257 259 262
254 254 254 255 253 244 247 251 246 246 246 258 255 239 234 229 232 228 216 226 233 212 211 212 216 220 224 230 234 237 243 244 245 249 254 259 261 261
255 259 261 255 254 251 250 249 249 253 247 251 259 256 245 241 237 239 224 219 316 344 236 230 208 217 237 245 251 249 246 246 246 249 250 252 256 259
254 256 256 252 258 260 260 257 254 249 247 247 254 253 237 306 80 228 239 59 204 226 254 282 302 292 283 271 262 262 258 251 248 249 251 251 250 251
250 11 47 42 39 34 349 310 287 253 249 247 237 218 199 197 216 189 192 96 274 258 248 244 238 239 251 261 260 256 251 251 251 251 251 249 248 249
50 54 51 46 53 51 48 49 48 6 327 331 3 314 22 357 64 135 165 199 242 221 250 254 255 257 255 250 246 248 241 239 244 249 244 247 253 252
58 62 54 49 46 48 45 45 45 47 50 47 54 32 38 22 26 30 18 337 287 293 310 267 243 255 251 247 245 252 247 244 243 242 249 252 252 252
64 62 63 55 43 44 48 50 47 44 40 47 57 51 52 22 2 313 292 281 276 258 247 265 251 254 262 266 259 257 260 247 239 240 243 248 253 254
63 58 58 51 37 30 39 35 37 48 54 53 46 29 12 1 355 321 293 284 277 269 248 257 260 260 263 265 262 256 250 249 234 241 245 249 251 250
69 62 50 43 32 25 26 15 12 19 360 344 334 319 278 294 254 268 295 291 293 298 297 337 327 323 282 263 256 262 269 246 241 243 244 245 243 241
63 54 42 27 20 16 6 29 13 341 349 342 338 332 323 317 316 319 322 342 324 299 315 346 316 309 295 302 295 299 298 285 280 268 248 247 239 229
51 40 33 11 10 25 46 28 358 334 352 344 336 336 345 347 359 340 328 317 304 297 304 304 288 290 286 285 283 286 284 286 288 286 277 273 236 221
54 48 23 26 29 75 39 1 348 7 358 342 335 343 348 335 326 320 313 307 301 294 285 279 266 275 276 277 280 281 285 281 276 276 277 274 263 231
26 33 20 10 5 18 11 9 19 17 1 350 355 346 338 334 329 330 326 321 316 310 306 300 292 285 282 280 284 289 291 286 290 284 283 278 276 253
9 20 21 12 8 4 5 5 359 3 2 354 342 332 331 329 327 328 324 320 312 309 310 312 310 306 298 293 286 282 287 285 283 281 282 280 273 271
28 26 21 15 6 359 358 354 351 352 350 339 336 335 331 327 325 325 319 317 314 311 315 317 320 315 307 294 285 279 272 276 287 283 275 277 277 263
37 30 24 15 5 1 358 354 348 349 342 338 336 332 328 325 324 324 320 317 318 319 318 317 312 305 297 296 306 311 327 321 315 305 302 297 293 301
32 28 21 14 4 359 357 350 344 340 338 336 328 328 325 324 323 319 320 322 320 316 309 305 306 313 324 317 309 303 298 294 291 291 293 293 303 238
22 19 14 9 0 352 352 341 337 334 332 329 326 327 327 322 319 319 317 315 310 308 313 314 313 314 302 298 292 292 295 297 291 283 282 296 292 183
11 5 3 359 352 345 341 340 337 335 334 331 331 325 326 326 318 315 316 316 315 315 311 311 311 309 310 302 298 299 304 305 300 298 291 266 257 162
3 354 350 348 346 343 341 337 333 330 330 329 328 329 327 317 317 316 314 316 313 315 313 313 318 316 309 309 304 302 301 299 308 307 301 243 195 129